{"data":{"norad_id":48982,"epoch":"2026-05-25T03:46:24.424896Z","epoch_age_seconds":61130,"freshness":"FRESH","line1":"1 48982U 21060R   26145.15722714  .00000118  00000+0  27625-3 0  9991","line2":"2 48982  87.9105 233.3571 0001992  93.2652 266.8707 13.16593121236565","mean_motion":13.16593121,"eccentricity":0.0001992,"inclination_deg":87.9105,"raan_deg":233.3571,"arg_perigee_deg":93.2652,"mean_anomaly_deg":266.8707,"bstar":0.00027625,"rev_number":23656,"period_min":109.37319791754,"perigee_km":1196.2519060274,"apogee_km":1199.2701438005,"semimajor_km":7575.898024914,"source":"CELESTRAK","updated_at":"2026-05-25T13:38:22.473794Z"}}